Location: Kempten-Allg�u
(47.7250°N, 10.3114°E)
Time: 22:32:43
(UTC+02:00)

ISS - Visible Passes

Search period start: 25 September 2020 00:00
Search period end: 05 October 2020 00:00
Orbit: 419 x 420 km, 51.6° (Epoch: 26 September)

Date Brightness Start Highest point End Pass type
(mag) Time Alt. Az. Time Alt. Az. Time Alt. Az.
25 Sep -2.8 20:58:19 10° WNW 21:01:32 40° N 21:02:08 36° NNE visible
26 Sep -2.8 20:10:48 10° WNW 20:14:02 41° N 20:16:31 15° ENE visible
26 Sep -1.4 21:47:53 10° WNW 21:49:28 24° NW 21:49:28 24° NW visible
27 Sep -3.1 21:00:29 10° WNW 21:03:46 46° N 21:03:50 46° NNE visible
28 Sep -2.9 20:13:01 10° WNW 20:16:15 42° N 20:18:11 20° ENE visible
28 Sep -1.1 21:49:54 10° WNW 21:51:09 21° WNW 21:51:09 21° WNW visible
29 Sep -3.4 21:02:29 10° WNW 21:05:30 63° NNW 21:05:30 63° NNW visible
30 Sep -3.4 20:15:03 10° WNW 20:18:23 55° NNE 20:19:53 28° E visible
30 Sep -0.8 21:51:58 10° WNW 21:52:51 16° W 21:52:51 16° W visible
01 Oct -3.1 19:27:36 10° WNW 19:30:52 46° N 19:34:09 10° E visible
01 Oct -3.0 21:04:27 10° WNW 21:07:15 50° WSW 21:07:15 50° WSW visible
02 Oct -3.8 20:16:58 10° WNW 20:20:21 85° SSW 20:21:42 34° ESE visible
02 Oct -0.4 21:54:28 10° W 21:54:40 11° W 21:54:40 11° W visible
03 Oct -3.7 19:29:30 10° WNW 19:32:53 71° NNE 19:36:12 10° ESE visible
03 Oct -1.9 21:06:36 10° W 21:09:10 25° SW 21:09:10 25° SW visible
04 Oct -2.7 20:18:57 10° WNW 20:22:08 39° SW 20:23:45 23° SSE visible
